{"data":{"norad_id":63758,"epoch":"2026-05-25T04:19:37.595136Z","epoch_age_seconds":59149,"freshness":"FRESH","line1":"1 63758U 25089H   26145.18029624  .00203267  00000+0  15469-2 0  9999","line2":"2 63758  43.0011 191.3461 0004656 286.1139  73.9216 15.70866708 62112","mean_motion":15.70866708,"eccentricity":0.0004656,"inclination_deg":43.0011,"raan_deg":191.3461,"arg_perigee_deg":286.1139,"mean_anomaly_deg":73.9216,"bstar":0.0015469,"rev_number":6211,"period_min":91.669139887329,"perigee_km":353.28311704153,"apogee_km":359.55433533376,"semimajor_km":6734.5557261876,"source":"CELESTRAK","updated_at":"2026-05-25T13:38:20.104291Z"}}